Radiation Dose at Monitoring Post of Fukushima Daini Nuclear Power Station
Date,Time,MP-1(microSv/h),MP-2(microSv/h),MP-3(microSv/h),MP-4(microSv/h),MP-5(microSv/h),MP-6(microSv/h),MP-7(microSv/h),Wind Direction,Wind Velocity(m/s),Rain
2022/02/14,00:00,0.160,0.146,0.223,0.213,0.221,0.127,0.083,northwest,4.8,Yes
2022/02/14,00:10,0.159,0.146,0.225,0.213,0.222,0.128,0.085,north-northwest,3.7,Yes
2022/02/14,00:20,0.159,0.146,0.225,0.214,0.222,0.128,0.084,north-northwest,3.2,Yes
2022/02/14,00:30,0.159,0.147,0.226,0.213,0.222,0.128,0.083,north-northwest,3.3,Yes
2022/02/14,00:40,0.161,0.146,0.225,0.214,0.222,0.128,0.084,north-northwest,3.2,Yes
2022/02/14,00:50,0.160,0.145,0.225,0.213,0.224,0.128,0.084,north-northwest,3.2,Yes
2022/02/14,01:00,0.159,0.147,0.225,0.213,0.223,0.130,0.084,north-northwest,3.3,Yes
2022/02/14,01:10,0.159,0.145,0.224,0.213,0.221,0.128,0.083,north,3.0,Yes
2022/02/14,01:20,0.158,0.145,0.224,0.211,0.221,0.128,0.082,north-northwest,3.5,Yes
2022/02/14,01:30,0.158,0.144,0.224,0.212,0.221,0.127,0.082,north-northwest,3.5,Yes
2022/02/14,01:40,0.159,0.145,0.223,0.213,0.221,0.127,0.083,northwest,4.1,Yes
2022/02/14,01:50,0.159,0.145,0.224,0.212,0.221,0.127,0.082,northwest,4.7,Yes
2022/02/14,02:00,0.159,0.145,0.223,0.211,0.221,0.127,0.083,northwest,5.0,Yes
2022/02/14,02:10,0.159,0.144,0.223,0.211,0.221,0.127,0.083,northwest,4.4,Yes
2022/02/14,02:20,0.158,0.145,0.224,0.212,0.222,0.128,0.083,north-northwest,3.3,Yes
2022/02/14,02:30,0.158,0.144,0.224,0.212,0.220,0.126,0.083,north-northwest,3.0,Yes
2022/02/14,02:40,0.158,0.144,0.224,0.211,0.220,0.126,0.081,north-northwest,4.6,Yes
2022/02/14,02:50,0.158,0.143,0.221,0.212,0.219,0.126,0.081,north-northwest,4.9,Yes
2022/02/14,03:00,0.157,0.142,0.222,0.210,0.220,0.125,0.081,north-northwest,4.8,Yes
2022/02/14,03:10,0.156,0.142,0.222,0.211,0.219,0.125,0.080,northwest,4.7,Yes
2022/02/14,03:20,0.156,0.142,0.222,0.211,0.220,0.125,0.080,north-northwest,5.4,No
2022/02/14,03:30,0.157,0.142,0.221,0.210,0.220,0.124,0.079,northwest,4.8,Yes
2022/02/14,03:40,0.156,0.142,0.221,0.211,0.218,0.124,0.080,northwest,5.0,Yes
2022/02/14,03:50,0.155,0.142,0.221,0.210,0.220,0.124,0.079,northwest,5.4,Yes
2022/02/14,04:00,0.155,0.142,0.221,0.210,0.219,0.125,0.078,northwest,5.9,Yes
2022/02/14,04:10,0.156,0.140,0.220,0.210,0.219,0.123,0.079,northwest,6.3,Yes
2022/02/14,04:20,0.155,0.142,0.221,0.210,0.219,0.124,0.079,northwest,7.0,Yes
2022/02/14,04:30,0.155,0.142,0.220,0.210,0.219,0.125,0.079,northwest,7.5,Yes
2022/02/14,04:40,0.156,0.142,0.221,0.210,0.218,0.124,0.079,north-northwest,7.5,Yes
2022/02/14,04:50,0.155,0.141,0.221,0.211,0.219,0.123,0.079,northwest,7.6,Yes
2022/02/14,05:00,0.155,0.141,0.220,0.211,0.218,0.123,0.079,north-northwest,8.6,Yes
2022/02/14,05:10,0.155,0.142,0.220,0.210,0.219,0.124,0.078,north-northwest,8.0,Yes
2022/02/14,05:20,0.155,0.142,0.221,0.210,0.219,0.123,0.080,north-northwest,8.1,Yes
2022/02/14,05:30,0.155,0.142,0.222,0.210,0.218,0.123,0.079,north-northwest,8.6,Yes
2022/02/14,05:40,0.155,0.142,0.221,0.211,0.218,0.123,0.079,north-northwest,7.9,Yes
2022/02/14,05:50,0.155,0.141,0.221,0.211,0.218,0.124,0.079,north-northwest,8.9,Yes
2022/02/14,06:00,0.155,0.141,0.220,0.210,0.219,0.123,0.078,north-northwest,9.0,Yes
2022/02/14,06:10,0.155,0.141,0.221,0.210,0.218,0.123,0.079,north-northwest,7.9,Yes
2022/02/14,06:20,0.156,0.141,0.221,0.210,0.218,0.123,0.079,north-northwest,8.0,Yes
2022/02/14,06:30,0.156,0.142,0.221,0.210,0.219,0.124,0.078,north-northwest,8.0,Yes
2022/02/14,06:40,0.156,0.142,0.222,0.210,0.218,0.123,0.079,north-northwest,7.7,Yes
2022/02/14,06:50,0.154,0.141,0.221,0.211,0.219,0.123,0.078,north-northwest,8.4,Yes
2022/02/14,07:00,0.156,0.142,0.221,0.211,0.219,0.123,0.078,north-northwest,7.9,Yes
2022/02/14,07:10,0.155,0.142,0.220,0.211,0.219,0.124,0.079,north-northwest,8.1,Yes
2022/02/14,07:20,0.155,0.141,0.221,0.209,0.219,0.124,0.078,north-northwest,7.1,Yes
2022/02/14,07:30,0.156,0.141,0.221,0.210,0.219,0.123,0.079,north-northwest,7.6,Yes
2022/02/14,07:40,0.156,0.143,0.222,0.210,0.219,0.123,0.079,north-northwest,7.7,No
2022/02/14,07:50,0.155,0.141,0.220,0.210,0.219,0.124,0.078,north-northwest,6.7,No
2022/02/14,08:00,0.156,0.142,0.222,0.211,0.219,0.123,0.079,north-northwest,6.9,No
2022/02/14,08:10,0.155,0.142,0.220,0.209,0.218,0.123,0.079,north-northwest,7.0,No
2022/02/14,08:20,0.155,0.142,0.220,0.210,0.219,0.123,0.079,northwest,5.9,No
2022/02/14,08:30,0.157,0.142,0.221,0.210,0.219,0.124,0.078,north-northwest,7.1,No
2022/02/14,08:40,0.155,0.141,0.222,0.212,0.219,0.123,0.078,north-northwest,6.6,No
2022/02/14,08:50,0.156,0.142,0.222,0.211,0.219,0.124,0.079,north-northwest,6.6,No
2022/02/14,09:00,0.155,0.142,0.221,0.210,0.218,0.122,0.079,north-northwest,7.1,No
2022/02/14,09:10,0.155,0.141,0.220,0.211,0.219,0.123,0.079,north-northwest,7.0,No
2022/02/14,09:20,0.156,0.142,0.221,0.210,0.219,0.123,0.080,north-northwest,5.9,No
2022/02/14,09:30,0.155,0.141,0.220,0.210,0.218,0.123,0.078,north-northwest,6.6,No
2022/02/14,09:40,0.156,0.141,0.221,0.211,0.218,0.123,0.079,north,9.1,No
2022/02/14,09:50,0.156,0.141,0.222,0.211,0.219,0.124,0.078,north,6.9,No
2022/02/14,10:00,0.156,0.142,0.222,0.211,0.220,0.123,0.079,north-northwest,6.6,No
2022/02/14,10:10,0.156,0.141,0.221,0.211,0.218,0.123,0.079,north,5.8,No
2022/02/14,10:20,0.155,0.141,0.221,0.210,0.219,0.124,0.079,north,6.0,No
2022/02/14,10:30,0.156,0.141,0.222,0.211,0.220,0.123,0.078,north-northwest,5.8,No
2022/02/14,10:40,0.156,0.141,0.221,0.210,0.219,0.124,0.079,north-northwest,6.4,No
2022/02/14,10:50,0.156,0.141,0.221,0.210,0.220,0.124,0.079,north-northwest,7.4,No
2022/02/14,11:00,0.156,0.142,0.222,0.210,0.220,0.123,0.079,north-northwest,5.2,No
2022/02/14,11:10,0.156,0.141,0.222,0.212,0.220,0.123,0.079,north,5.2,No
2022/02/14,11:20,0.156,0.142,0.222,0.211,0.220,0.124,0.079,north-northeast,6.8,No
2022/02/14,11:30,0.156,0.142,0.222,0.210,0.219,0.124,0.079,north-northeast,7.3,No
2022/02/14,11:40,0.156,0.141,0.221,0.212,0.220,0.123,0.078,north-northeast,6.8,No
2022/02/14,11:50,0.155,0.142,0.222,0.212,0.221,0.124,0.079,north-northeast,7.1,No
2022/02/14,12:00,0.156,0.141,0.222,0.212,0.219,0.124,0.078,north-northeast,6.8,No
2022/02/14,12:10,0.156,0.142,0.223,0.211,0.220,0.124,0.077,north-northeast,6.2,No
2022/02/14,12:20,0.155,0.142,0.222,0.210,0.220,0.124,0.079,north-northeast,5.4,No
2022/02/14,12:30,0.156,0.142,0.223,0.213,0.220,0.124,0.079,north-northeast,6.6,No
2022/02/14,12:40,0.156,0.142,0.222,0.213,0.221,0.124,0.078,north-northeast,5.9,No
2022/02/14,12:50,0.155,0.142,0.222,0.213,0.220,0.124,0.079,north-northeast,7.3,No
2022/02/14,13:00,0.156,0.142,0.222,0.213,0.219,0.124,0.079,north,6.2,No
2022/02/14,13:10,0.156,0.142,0.223,0.213,0.221,0.124,0.079,north,4.8,No
2022/02/14,13:20,0.156,0.141,0.223,0.213,0.219,0.124,0.079,north,6.3,No
2022/02/14,13:30,0.156,0.141,0.221,0.213,0.221,0.124,0.078,north-northeast,7.2,No
2022/02/14,13:40,0.155,0.142,0.223,0.213,0.220,0.125,0.079,north-northeast,7.1,No
2022/02/14,13:50,0.156,0.141,0.223,0.213,0.220,0.124,0.079,north-northeast,5.5,No
2022/02/14,14:00,0.155,0.142,0.222,0.213,0.221,0.123,0.079,north-northeast,7.6,No
2022/02/14,14:10,0.156,0.142,0.221,0.213,0.220,0.124,0.079,north-northeast,7.6,No
2022/02/14,14:20,0.156,0.141,0.223,0.212,0.221,0.124,0.080,north-northeast,7.6,No
2022/02/14,14:30,0.156,0.142,0.222,0.213,0.219,0.124,0.079,north,6.7,No
2022/02/14,14:40,0.156,0.141,0.223,0.214,0.221,0.123,0.079,north,5.7,No
2022/02/14,14:50,0.156,0.142,0.223,0.214,0.220,0.124,0.078,north-northeast,6.7,No
2022/02/14,15:00,0.156,0.142,0.224,0.213,0.221,0.125,0.078,northeast,5.8,No
2022/02/14,15:10,0.156,0.141,0.223,0.215,0.220,0.124,0.078,north-northeast,5.5,No
2022/02/14,15:20,0.156,0.142,0.224,0.216,0.220,0.123,0.079,north,6.0,No
2022/02/14,15:30,0.157,0.142,0.223,0.214,0.221,0.124,0.079,north,5.5,No
2022/02/14,15:40,0.155,0.142,0.222,0.214,0.220,0.124,0.079,north,5.9,No
2022/02/14,15:50,0.156,0.142,0.223,0.213,0.219,0.125,0.079,north,5.5,No
2022/02/14,16:00,0.156,0.141,0.224,0.214,0.221,0.123,0.079,north,4.1,No
2022/02/14,16:10,0.157,0.141,0.224,0.214,0.220,0.123,0.079,north,5.2,No
2022/02/14,16:20,0.156,0.142,0.223,0.214,0.219,0.124,0.079,north,5.5,No
2022/02/14,16:30,0.156,0.141,0.223,0.215,0.220,0.124,0.079,north,4.7,No
2022/02/14,16:40,0.156,0.142,0.223,0.214,0.220,0.124,0.079,north,3.2,No
2022/02/14,16:50,0.156,0.141,0.222,0.213,0.221,0.124,0.079,north,4.7,No
2022/02/14,17:00,0.156,0.142,0.223,0.214,0.220,0.123,0.079,north,5.1,No
2022/02/14,17:10,0.156,0.141,0.223,0.214,0.220,0.123,0.079,north-northwest,4.0,No
2022/02/14,17:20,0.156,0.140,0.222,0.213,0.220,0.123,0.079,north,4.6,No
2022/02/14,17:30,0.156,0.142,0.224,0.214,0.220,0.124,0.078,north,4.4,No
2022/02/14,17:40,0.155,0.142,0.222,0.214,0.220,0.124,0.079,north-northwest,4.8,No
2022/02/14,17:50,0.156,0.141,0.223,0.214,0.219,0.123,0.078,north-northwest,4.4,No
2022/02/14,18:00,0.156,0.141,0.222,0.214,0.220,0.124,0.079,north-northwest,4.4,No
2022/02/14,18:10,0.156,0.141,0.223,0.214,0.221,0.124,0.078,north-northwest,4.4,No
2022/02/14,18:20,0.154,0.142,0.223,0.214,0.220,0.124,0.079,north-northwest,5.2,No
2022/02/14,18:30,0.156,0.142,0.222,0.215,0.218,0.123,0.078,northwest,4.9,No
2022/02/14,18:40,0.155,0.142,0.224,0.214,0.220,0.124,0.078,north-northwest,5.5,No
2022/02/14,18:50,0.156,0.141,0.222,0.214,0.221,0.124,0.078,northwest,4.8,No
2022/02/14,19:00,0.156,0.142,0.223,0.214,0.220,0.123,0.079,north-northwest,2.9,No
2022/02/14,19:10,0.156,0.142,0.224,0.214,0.220,0.124,0.079,north,2.2,No
2022/02/14,19:20,0.155,0.143,0.223,0.215,0.220,0.123,0.079,north-northeast,2.1,No
2022/02/14,19:30,0.156,0.142,0.224,0.214,0.220,0.124,0.079,northeast,1.4,No
2022/02/14,19:40,0.157,0.142,0.223,0.214,0.220,0.124,0.079,east-northeast,0.7,No
2022/02/14,19:50,0.157,0.143,0.223,0.215,0.220,0.124,0.079,northeast,1.0,No
2022/02/14,20:00,0.156,0.141,0.224,0.214,0.220,0.123,0.079,north-northeast,1.6,No
2022/02/14,20:10,0.157,0.142,0.223,0.215,0.221,0.124,0.079,northeast,1.6,No
2022/02/14,20:20,0.156,0.143,0.223,0.215,0.221,0.124,0.080,northeast,1.3,No
2022/02/14,20:30,0.156,0.142,0.224,0.214,0.221,0.125,0.080,north-northeast,1.0,No
2022/02/14,20:40,0.156,0.142,0.223,0.214,0.220,0.123,0.079,northeast,1.4,No
2022/02/14,20:50,0.157,0.142,0.224,0.215,0.220,0.124,0.079,east-northeast,1.6,No
2022/02/14,21:00,0.157,0.143,0.224,0.215,0.220,0.125,0.079,northeast,1.3,No
2022/02/14,21:10,0.156,0.142,0.224,0.215,0.220,0.124,0.079,north-northeast,1.1,No
2022/02/14,21:20,0.156,0.142,0.223,0.214,0.220,0.124,0.079,north-northeast,0.7,No
2022/02/14,21:30,0.156,0.142,0.223,0.214,0.220,0.123,0.079,north,1.6,No
2022/02/14,21:40,0.156,0.142,0.224,0.215,0.221,0.124,0.079,north,1.8,No
2022/02/14,21:50,0.156,0.142,0.224,0.214,0.222,0.124,0.079,north-northeast,1.9,No
2022/02/14,22:00,0.156,0.142,0.224,0.215,0.220,0.125,0.079,north,1.8,No
2022/02/14,22:10,0.156,0.142,0.224,0.214,0.220,0.124,0.079,north-northeast,2.2,No
2022/02/14,22:20,0.156,0.142,0.224,0.215,0.221,0.124,0.079,northeast,3.0,No
2022/02/14,22:30,0.156,0.143,0.225,0.214,0.221,0.124,0.079,northeast,2.5,No
2022/02/14,22:40,0.156,0.142,0.224,0.215,0.221,0.124,0.079,northeast,2.7,No
2022/02/14,22:50,0.157,0.142,0.224,0.215,0.221,0.124,0.079,east-northeast,3.0,No
2022/02/14,23:00,0.157,0.142,0.224,0.214,0.220,0.124,0.079,east-northeast,3.0,No
2022/02/14,23:10,0.157,0.143,0.224,0.215,0.220,0.124,0.079,north-northeast,1.8,No
2022/02/14,23:20,0.156,0.143,0.224,0.216,0.221,0.124,0.079,northeast,1.8,No
2022/02/14,23:30,0.156,0.141,0.223,0.213,0.221,0.124,0.079,east,2.2,No
2022/02/14,23:40,0.157,0.142,0.224,0.216,0.220,0.124,0.080,east-northeast,2.4,No
2022/02/14,23:50,0.157,0.142,0.224,0.214,0.220,0.124,0.079,east,2.7,No
